STARLINK-5195 (54051 NORAD) Tracking and Keplerian Element Data

This shows tracking and keplerian element data for the satellite.

Feedback or suggestion? Click here.




ElementValue
Catalog54051
NameSTARLINK-5195
Epoch Orbit548
Epoch Day325.33334491
Epoch Year2022
RAAN352.7204
Inclination53.2171
Eccentricity0.0001589
Argument of Perigee51.0347
Mean Anonmoly106.0213
Mean Motion15.45110368
Decay Rate-0.01201399
L11 54051U 22136A 22325.33334491 -.01201399 00000+0 -27454-1 0 9992
L22 54051 53.2171 352.7204 0001589 51.0347 106.0213 15.45110368 5486



Live tracking and technical data element details for STARLINK-5195 (NORAD 54051). STARLINK-5195 can be tracked NOW for your location showing map with azimuth and elevation plus other details from your city location.







IsCatalogInMostPopularTable: catalog: 54051, numindb: 1
Update: records affected: 1



GetName: 54051 STARLINK-5195

Hit Count: updated at: Mon, 28 Nov 2022 21:48:13 GMT